Wind_Speed
2 2 1 1 3 5 7 8 9 10 12 13 14 16 18 19 20 21 20 20 21 21 21 23 24 26 28 29 30 30 31 31 32 32 31 30 29 28 27 25 24 23 22 23 24 24 24 24 24
3 2 2 2 2 2 4 6 6 7 9 10 12 13 14 14 16 16 16 16 17 18 20 22 23 24 26 29 30 31 32 33 34 35 34 33 32 31 31 29 28 27 27 27 28 28 29 30 29
8 8 7 5 3 2 1 1 1 3 5 7 8 9 10 10 11 12 13 13 15 17 19 21 23 24 26 27 28 30 31 33 34 34 34 33 33 33 33 33 31 31 31 30 31 31 32 34 33
13 14 11 10 9 7 6 6 5 5 6 7 8 8 9 10 11 13 14 14 16 18 20 22 24 26 28 29 31 31 32 34 35 36 36 36 36 36 36 35 35 34 34 34 34 34 35 36 37
13 13 9 9 9 8 8 7 7 6 6 6 8 9 11 12 13 15 17 18 19 21 23 25 28 29 31 32 34 35 35 37 37 38 39 39 39 40 39 39 38 38 38 38 38 38 37 37 38
11 9 7 7 7 6 6 6 6 7 8 9 10 11 12 14 15 17 19 21 22 23 25 27 29 31 33 35 36 37 39 41 42 43 43 43 43 43 43 43 42 40 39 40 40 40 40 40 40
10 8 8 7 7 8 8 7 7 7 7 8 9 10 12 14 16 18 19 20 22 23 25 27 30 32 34 36 37 38 39 40 42 44 45 46 47 47 47 48 47 46 44 43 43 42 43 43 43
9 9 8 8 8 8 7 7 8 9 11 13 14 15 16 17 18 21 22 24 26 28 30 32 34 36 38 41 42 43 44 44 43 43 44 45 47 49 50 50 51 50 51 49 48 47 46 46 45
10 9 8 7 7 6 6 7 9 12 14 16 16 17 18 19 21 23 25 28 30 31 33 35 36 38 39 41 44 46 48 48 49 49 49 49 49 49 51 51 52 52 53 53 52 51 50 50 49
10 8 7 6 6 5 6 7 8 10 12 13 16 18 20 23 25 27 30 32 35 37 39 41 42 43 45 47 48 50 52 53 53 52 52 53 54 54 53 52 53 54 54 54 54 53 54 53 51
9 8 8 9 9 8 9 9 9 11 14 17 19 20 22 24 27 29 31 34 37 40 43 45 48 50 53 55 56 57 58 58 59 59 58 57 57 56 57 57 57 56 55 55 54 54 54 54 53
9 10 9 9 9 9 10 11 14 17 19 21 22 24 26 29 33 36 38 41 45 48 52 54 56 58 60 62 64 65 65 66 65 65 64 64 63 62 60 59 60 60 58 56 54 55 55 55 54
7 8 7 8 9 10 13 17 19 20 20 21 23 26 29 33 37 41 44 48 51 54 57 61 63 64 66 69 71 72 72 72 72 71 70 69 67 66 66 65 63 63 62 60 58 57 57 57 57
7 8 8 9 10 12 14 16 17 18 20 22 26 32 38 43 48 52 54 57 60 64 67 69 70 72 73 75 77 79 80 78 77 76 76 75 74 71 69 68 68 67 66 65 64 63 62 61 59
8 9 10 11 12 14 13 15 17 21 24 27 34 40 45 50 55 59 62 65 66 69 73 75 76 77 78 79 80 82 82 81 80 80 79 79 79 78 76 72 70 71 71 69 68 68 67 66 65
7 7 9 11 12 14 15 16 20 25 30 35 40 45 50 56 61 65 70 72 75 77 78 79 80 80 81 81 80 81 80 80 79 79 80 81 82 82 81 80 76 74 74 74 72 70 69 69 69
7 9 10 13 15 17 20 24 28 33 37 42 46 51 56 61 67 71 74 76 78 79 80 83 85 86 85 81 78 77 76 75 73 73 74 79 84 85 84 83 83 82 79 78 76 74 71 70 70
10 12 14 15 19 22 26 29 32 36 41 46 50 54 60 65 70 73 75 77 80 82 83 84 84 81 75 69 67 67 66 60 57 58 59 63 71 82 88 87 85 86 86 84 82 80 77 73 71
13 15 15 16 20 23 27 30 34 39 43 47 53 59 64 70 74 76 78 80 82 82 83 79 71 60 58 60 59 57 49 45 43 44 47 48 52 60 76 90 91 89 89 88 86 85 82 79 74
16 18 18 20 23 27 32 34 38 42 47 53 58 63 69 74 75 76 78 82 84 83 79 70 58 55 57 56 55 51 45 43 43 43 45 47 49 51 56 68 86 95 93 92 91 88 85 81 79
17 20 22 25 28 31 36 38 42 47 51 57 62 68 72 75 77 78 79 82 81 77 70 58 52 54 57 58 58 55 51 49 48 46 45 46 47 49 50 55 66 84 96 96 94 92 90 85 81
20 23 26 28 30 32 37 44 44 49 54 60 65 70 73 75 76 79 81 81 77 74 63 53 53 57 61 63 63 61 57 56 55 52 48 45 45 47 49 49 50 63 81 93 97 96 94 91 86
23 26 28 30 31 35 40 44 48 53 59 65 70 73 76 79 79 82 80 77 73 67 56 52 56 61 65 67 66 64 60 60 61 58 52 46 44 44 44 43 43 45 59 73 85 94 95 94 91
24 26 29 32 35 39 43 48 53 58 65 70 73 76 78 80 82 81 77 71 65 58 53 55 60 65 67 68 66 62 58 56 57 56 52 46 42 40 39 39 38 38 41 51 63 75 86 91 92
23 27 32 36 41 43 46 51 56 63 68 72 76 77 79 82 82 77 71 64 58 55 56 61 65 67 67 66 64 61 56 53 52 51 50 47 42 38 35 35 36 35 34 36 46 56 65 78 86
23 27 32 37 42 46 49 55 59 66 71 75 77 78 80 82 78 73 65 59 57 58 62 65 66 66 64 59 56 53 50 49 48 47 47 45 43 40 35 32 33 33 33 32 34 40 49 57 68
26 30 33 39 45 51 54 57 63 69 74 75 75 77 80 80 74 66 61 61 62 65 66 65 63 59 55 51 49 49 48 46 45 44 44 42 41 40 38 34 30 31 32 32 31 33 37 43 51
27 32 36 41 47 52 57 62 69 74 76 75 75 78 83 77 68 62 62 65 67 67 64 61 56 52 50 50 50 49 48 46 44 44 44 43 41 39 40 39 34 32 33 34 34 34 36 37 40
30 33 37 43 47 53 61 65 71 76 77 75 77 79 79 71 64 63 66 68 68 65 61 55 52 49 48 48 48 48 50 50 48 47 46 45 44 41 39 40 40 37 35 35 37 35 35 36 37
30 35 41 46 50 55 63 67 74 76 75 76 77 77 72 66 64 66 68 68 64 59 55 52 49 49 51 51 50 50 51 52 52 50 48 45 44 43 41 39 41 42 41 38 37 36 34 36 37
Wind_Direction
299 261 243 245 248 245 243 247 250 255 260 266 266 265 266 267 267 271 272 268 267 265 265 268 269 268 267 267 267 268 268 266 265 265 266 266 266 266 266 265 264 262 258 254 250 246 243 238 233
73 72 73 85 158 227 243 257 259 272 277 281 281 279 277 278 279 279 275 270 267 264 264 265 265 265 266 267 267 266 267 267 266 265 263 262 262 263 264 264 263 261 258 255 251 246 243 240 236
71 71 68 77 91 123 184 208 289 314 322 321 318 316 306 303 299 293 289 284 280 278 275 273 273 272 271 271 271 270 268 267 266 265 264 263 262 262 262 262 260 258 256 254 252 248 244 241 238
70 69 68 72 69 70 68 61 47 36 18 355 340 331 322 313 305 302 299 297 293 289 284 281 279 279 278 276 274 270 268 267 266 266 263 261 261 261 261 260 258 256 254 251 250 249 245 242 241
67 67 64 62 63 59 53 40 27 18 3 342 326 318 310 306 301 297 295 293 290 288 287 286 285 283 280 276 273 271 270 269 268 266 265 264 263 260 258 257 256 254 252 250 247 246 245 243 242
70 67 57 55 54 50 45 27 9 357 345 333 323 315 305 303 298 294 292 293 293 292 293 292 292 290 286 281 276 274 271 269 268 267 266 265 264 263 262 259 257 255 253 250 248 246 245 243 242
65 61 61 57 54 52 45 31 15 360 349 337 329 321 317 312 310 308 305 302 299 297 296 294 292 290 288 286 284 279 275 272 270 268 266 265 264 264 262 261 260 257 253 251 251 248 246 246 244
65 63 62 57 55 51 38 17 1 350 347 347 344 338 334 326 322 318 315 312 308 305 302 298 295 292 289 287 284 282 279 276 273 270 268 267 266 265 264 262 260 259 257 253 251 250 248 248 247
54 51 53 55 56 47 29 7 359 352 351 350 347 342 336 329 324 319 316 312 308 305 301 298 294 290 287 285 284 282 280 278 276 274 272 270 267 265 264 263 261 258 255 253 251 249 248 247 247
50 52 57 65 62 49 34 22 9 357 347 341 337 333 329 325 323 320 317 313 310 306 302 297 293 290 287 284 282 281 280 279 277 276 274 271 269 266 263 261 261 259 256 253 250 248 248 248 247
53 57 50 50 49 42 33 23 9 354 342 338 334 329 326 324 322 318 313 309 305 302 299 296 293 290 287 284 282 280 278 276 276 275 274 273 270 267 264 260 258 257 255 254 252 249 247 247 247
59 60 56 52 40 25 12 2 353 348 344 341 337 334 331 325 320 316 312 307 304 301 299 296 293 290 286 284 282 281 280 278 276 274 272 271 270 268 265 262 258 255 252 251 250 249 248 247 245
73 68 57 38 14 10 358 352 349 345 342 334 331 326 321 317 313 310 308 307 304 301 299 298 297 294 291 288 286 284 282 280 278 276 273 271 268 267 265 263 259 256 252 249 247 246 247 248 247
55 39 23 12 0 355 351 348 345 340 333 327 324 323 322 319 316 314 311 309 307 306 304 302 300 299 297 295 293 291 288 285 282 277 273 270 267 265 263 261 259 256 253 251 249 247 246 247 248
27 13 1 353 349 349 348 340 340 332 328 324 323 321 319 317 315 314 312 309 307 306 304 304 303 302 299 296 294 291 288 285 281 277 272 269 267 264 261 258 256 255 253 250 249 248 247 246 246
8 352 341 338 336 336 333 328 330 327 326 323 321 319 317 315 313 311 309 309 310 309 309 309 308 306 303 299 294 289 285 282 279 274 268 264 263 262 260 258 255 252 251 250 248 247 247 246 246
333 327 327 327 327 327 327 328 331 328 324 321 319 318 315 313 311 312 313 313 313 312 312 312 310 307 304 300 298 297 296 291 285 279 272 265 260 259 258 255 254 253 250 249 248 247 246 245 245
328 331 334 329 325 325 323 325 327 325 322 320 318 316 314 313 314 316 317 316 316 316 314 312 310 305 302 304 306 305 302 298 295 291 285 276 266 259 256 255 252 250 250 249 249 248 247 245 243
332 332 330 321 320 319 319 323 325 323 320 318 317 318 317 318 318 319 319 319 318 317 315 312 307 307 311 311 310 307 303 299 296 294 293 288 281 270 259 253 253 250 247 246 247 247 247 244 242
327 323 319 318 319 322 322 324 324 322 321 322 322 321 320 319 319 320 320 319 319 317 313 308 306 311 314 315 314 307 302 299 297 296 294 293 289 283 271 259 252 249 247 245 244 244 244 243 242
321 321 321 321 322 324 322 323 325 323 324 324 324 321 320 320 321 321 320 320 320 315 309 305 307 312 315 316 314 305 299 300 302 301 300 297 294 291 285 273 259 248 245 244 243 241 241 240 239
327 326 323 322 324 326 323 325 327 326 326 325 324 324 324 323 323 322 323 323 319 313 309 307 313 313 313 314 311 305 296 290 293 296 297 297 296 293 291 286 277 258 246 242 241 241 240 239 238
326 325 323 324 325 325 327 326 328 328 327 326 328 328 326 326 325 325 326 323 318 314 312 311 314 314 313 314 311 308 301 293 289 291 294 296 295 296 293 290 285 275 257 246 240 239 238 238 238
327 327 327 325 326 330 328 327 328 328 328 330 330 329 328 327 327 328 327 323 319 318 318 316 316 316 315 315 314 310 306 300 295 292 292 292 293 293 294 289 285 279 269 257 245 237 236 236 237
330 331 328 329 331 330 328 328 330 329 331 332 332 330 329 329 331 330 327 323 322 322 321 318 318 317 316 315 312 309 306 303 300 296 293 290 289 288 288 287 281 276 268 260 250 240 236 234 234
332 331 332 333 330 328 331 333 332 332 334 334 333 332 331 333 333 330 327 325 324 323 322 321 321 319 318 317 317 317 316 312 309 303 297 292 287 283 281 281 279 272 265 257 248 243 238 236 236
334 334 334 333 332 334 335 334 334 336 336 336 335 334 334 336 333 330 327 325 326 325 325 324 323 324 326 328 327 325 323 320 316 312 308 302 292 283 277 272 272 268 261 255 247 240 237 234 234
334 336 337 338 338 337 337 338 338 339 337 336 336 336 337 336 333 330 328 328 329 328 328 329 330 333 334 333 331 329 326 323 320 316 311 306 301 290 279 270 263 260 257 251 246 246 239 232 228
336 338 337 337 339 340 338 339 339 339 337 337 338 339 338 335 334 331 331 331 331 331 332 335 337 338 338 335 332 330 327 324 320 316 313 308 303 296 284 271 262 256 251 247 245 246 241 234 229
337 337 336 339 340 339 338 339 338 339 338 339 340 340 337 336 334 333 333 333 334 336 337 339 341 341 339 337 333 330 327 324 321 317 314 311 303 296 289 278 264 255 250 245 241 239 237 233 231
Height
5862 5862 5864 5864 5865 5865 5865 5866 5865 5866 5867 5867 5868 5868 5867 5868 5869 5871 5869 5867 5866 5865 5864 5864 5863 5863 5863 5862 5861 5860 5860 5859 5858 5857 5857 5857 5856 5855 5854 5853 5853 5853 5853 5852 5852 5852 5853 5854 5853
5862 5863 5865 5865 5865 5864 5864 5864 5865 5865 5865 5865 5865 5865 5865 5864 5864 5864 5863 5863 5862 5861 5859 5859 5858 5858 5857 5856 5855 5854 5854 5853 5852 5852 5851 5850 5849 5849 5848 5847 5846 5846 5846 5846 5846 5847 5848 5849 5849
5863 5864 5865 5865 5864 5864 5864 5863 5863 5864 5864 5864 5864 5864 5863 5862 5861 5860 5860 5860 5859 5858 5857 5856 5855 5854 5853 5853 5851 5850 5849 5848 5847 5845 5844 5843 5843 5842 5841 5841 5840 5840 5840 5840 5841 5842 5842 5843 5844
5866 5867 5867 5866 5865 5865 5864 5864 5864 5864 5865 5864 5863 5862 5860 5860 5859 5859 5858 5857 5856 5855 5854 5853 5852 5850 5849 5848 5847 5845 5843 5843 5842 5841 5839 5837 5836 5835 5834 5834 5833 5833 5833 5833 5834 5835 5836 5836 5837
5866 5867 5868 5866 5866 5866 5866 5865 5864 5864 5864 5864 5864 5862 5861 5860 5859 5858 5856 5855 5853 5851 5849 5848 5846 5844 5843 5842 5840 5839 5837 5835 5834 5832 5831 5830 5829 5827 5826 5825 5825 5825 5824 5825 5826 5827 5828 5829 5829
5868 5867 5867 5866 5866 5866 5865 5864 5864 5863 5863 5863 5863 5861 5859 5858 5857 5855 5854 5852 5850 5848 5846 5844 5841 5839 5836 5833 5831 5829 5827 5826 5825 5823 5821 5820 5819 5819 5818 5817 5816 5816 5816 5816 5816 5818 5819 5820 5821
5869 5868 5867 5867 5866 5866 5865 5864 5863 5862 5862 5862 5860 5859 5857 5855 5854 5852 5851 5849 5847 5844 5841 5838 5835 5833 5829 5826 5823 5821 5819 5816 5814 5813 5811 5809 5808 5808 5808 5808 5807 5807 5807 5807 5807 5808 5809 5810 5812
5870 5870 5868 5867 5867 5866 5864 5863 5862 5861 5860 5860 5859 5857 5855 5854 5853 5851 5849 5846 5843 5840 5838 5834 5831 5827 5822 5818 5815 5812 5809 5807 5804 5802 5800 5799 5798 5797 5797 5796 5796 5796 5797 5797 5797 5798 5800 5801 5802
5872 5872 5870 5869 5868 5866 5865 5864 5863 5861 5860 5859 5857 5856 5854 5852 5851 5849 5846 5842 5838 5834 5830 5826 5822 5819 5815 5811 5807 5803 5799 5796 5794 5792 5790 5788 5787 5786 5785 5784 5783 5783 5784 5785 5786 5788 5788 5790 5791
5872 5871 5870 5869 5868 5867 5866 5865 5864 5863 5861 5859 5857 5855 5853 5850 5847 5845 5841 5837 5832 5828 5824 5819 5814 5810 5805 5800 5796 5791 5787 5784 5781 5779 5778 5776 5774 5774 5772 5771 5770 5770 5771 5772 5773 5775 5776 5778 5780
5872 5871 5870 5869 5869 5868 5867 5866 5865 5863 5861 5860 5857 5854 5851 5848 5845 5841 5836 5831 5826 5821 5816 5810 5804 5799 5794 5789 5784 5779 5775 5771 5768 5765 5763 5761 5760 5759 5759 5758 5757 5756 5757 5759 5760 5761 5763 5766 5768
5874 5872 5872 5870 5869 5869 5868 5866 5864 5862 5860 5857 5854 5850 5847 5843 5839 5834 5829 5824 5818 5812 5806 5799 5793 5787 5780 5775 5770 5765 5761 5757 5754 5750 5747 5745 5744 5743 5743 5743 5742 5741 5742 5743 5745 5748 5750 5752 5754
5875 5873 5872 5871 5870 5869 5868 5866 5863 5860 5857 5854 5851 5848 5843 5838 5833 5828 5823 5816 5810 5802 5795 5787 5778 5771 5765 5758 5752 5747 5743 5739 5736 5733 5729 5727 5726 5725 5725 5725 5725 5726 5727 5727 5729 5732 5735 5738 5741
5876 5876 5875 5873 5871 5870 5868 5865 5862 5859 5856 5853 5849 5844 5838 5832 5825 5820 5814 5806 5797 5789 5781 5773 5764 5755 5747 5740 5732 5725 5719 5714 5712 5711 5709 5706 5706 5706 5706 5705 5706 5707 5709 5711 5713 5715 5718 5722 5726
5877 5877 5876 5874 5872 5870 5868 5865 5861 5858 5854 5849 5844 5838 5831 5823 5816 5809 5801 5793 5784 5775 5766 5757 5747 5737 5728 5719 5710 5702 5695 5689 5685 5682 5681 5681 5682 5683 5684 5684 5685 5687 5689 5691 5695 5698 5702 5705 5709
5877 5876 5874 5872 5869 5868 5867 5863 5859 5854 5849 5844 5838 5831 5823 5815 5807 5798 5789 5778 5769 5759 5747 5736 5725 5715 5705 5694 5684 5675 5667 5661 5656 5653 5651 5652 5652 5655 5657 5659 5662 5665 5668 5671 5675 5678 5683 5688 5693
5876 5875 5872 5870 5867 5864 5862 5859 5856 5851 5845 5839 5832 5824 5816 5806 5795 5785 5773 5762 5752 5740 5728 5717 5704 5693 5682 5671 5659 5647 5638 5631 5626 5623 5622 5623 5624 5625 5628 5631 5636 5641 5646 5650 5654 5659 5663 5669 5674
5875 5873 5871 5868 5864 5862 5859 5856 5851 5846 5840 5833 5823 5814 5804 5794 5782 5770 5758 5746 5733 5719 5706 5695 5684 5673 5662 5651 5640 5629 5619 5609 5602 5596 5594 5594 5595 5596 5599 5601 5606 5613 5620 5626 5631 5637 5643 5649 5655
5873 5872 5869 5866 5863 5861 5857 5852 5847 5840 5832 5824 5815 5805 5793 5780 5768 5755 5742 5728 5715 5702 5688 5675 5664 5653 5645 5636 5626 5616 5607 5598 5590 5583 5577 5573 5570 5568 5568 5572 5577 5582 5590 5598 5605 5612 5620 5628 5634
5872 5870 5867 5865 5861 5857 5851 5847 5840 5833 5825 5816 5806 5794 5781 5768 5755 5742 5729 5716 5702 5687 5672 5659 5648 5638 5629 5620 5610 5601 5595 5587 5579 5571 5565 5559 5553 5549 5545 5543 5545 5550 5559 5569 5577 5586 5596 5606 5613
5870 5867 5863 5860 5857 5852 5845 5841 5835 5826 5817 5807 5796 5784 5771 5758 5744 5730 5715 5700 5685 5669 5653 5642 5633 5624 5616 5606 5597 5588 5581 5573 5566 5558 5550 5544 5536 5530 5525 5521 5519 5521 5527 5538 5549 5559 5569 5581 5592
5866 5863 5860 5856 5853 5847 5841 5833 5827 5817 5808 5798 5787 5773 5758 5743 5728 5715 5700 5686 5669 5652 5638 5628 5620 5612 5603 5593 5583 5574 5565 5558 5551 5544 5536 5529 5522 5514 5507 5501 5497 5495 5498 5506 5518 5530 5542 5555 5567
5863 5860 5857 5852 5847 5842 5835 5826 5820 5810 5800 5789 5775 5760 5744 5730 5717 5702 5686 5669 5651 5636 5625 5617 5608 5599 5588 5577 5567 5557 5547 5539 5533 5527 5521 5514 5507 5500 5492 5486 5481 5477 5476 5480 5489 5501 5514 5528 5542
5860 5856 5852 5847 5842 5836 5828 5821 5812 5804 5792 5778 5763 5747 5733 5718 5703 5688 5671 5653 5637 5624 5615 5605 5595 5584 5573 5561 5550 5539 5530 5521 5514 5509 5503 5498 5493 5487 5480 5474 5469 5465 5463 5464 5469 5478 5490 5503 5517
5857 5853 5848 5842 5835 5830 5823 5814 5806 5793 5779 5766 5752 5737 5721 5705 5690 5673 5654 5638 5626 5616 5605 5595 5582 5570 5558 5545 5533 5522 5513 5504 5497 5491 5486 5482 5478 5474 5470 5464 5459 5456 5454 5453 5457 5464 5471 5481 5493
5854 5851 5846 5839 5831 5824 5816 5806 5796 5782 5768 5755 5741 5725 5709 5693 5676 5658 5640 5628 5618 5607 5594 5582 5568 5554 5542 5530 5518 5507 5498 5490 5482 5475 5470 5465 5462 5460 5458 5455 5450 5447 5445 5445 5447 5452 5459 5465 5474
5850 5845 5840 5833 5824 5815 5808 5799 5786 5772 5759 5745 5730 5714 5698 5681 5663 5647 5632 5620 5607 5594 5580 5568 5554 5540 5528 5518 5508 5498 5488 5479 5471 5463 5456 5451 5447 5444 5443 5443 5440 5438 5436 5437 5439 5442 5446 5453 5459
5847 5841 5835 5828 5819 5810 5801 5789 5776 5763 5748 5734 5720 5704 5687 5669 5652 5638 5623 5610 5595 5580 5567 5554 5542 5531 5520 5509 5499 5490 5480 5470 5461 5453 5445 5438 5433 5429 5427 5427 5428 5427 5426 5427 5429 5433 5436 5441 5446
5843 5836 5829 5822 5814 5803 5791 5784 5769 5754 5739 5725 5710 5693 5675 5658 5643 5628 5613 5599 5585 5570 5557 5545 5534 5524 5514 5503 5492 5482 5471 5461 5451 5442 5433 5426 5419 5414 5412 5411 5412 5415 5416 5417 5419 5422 5426 5430 5435
5839 5832 5825 5817 5807 5797 5786 5776 5760 5746 5731 5716 5700 5682 5664 5650 5635 5620 5605 5590 5576 5563 5551 5539 5528 5518 5507 5495 5484 5473 5462 5451 5440 5430 5421 5413 5406 5400 5396 5395 5396 5399 5402 5404 5407 5411 5415 5420 5425